User: anonymous   Login
Location: Brachbach
(49.1847°N, 9.7240°E)
Time: 20:03:21
(UTC+00:00)
Language:

Cosmos 1980 Rocket - Orbit

View from above orbital plane
View from above orbital plane
View from above satellite
View from above satellite

Ground track
Ground track

The orbit data is extracted from the following two-line orbital elements,

1 19650U 88102B   24197.64306051  .00000377  00000-0  21539-3 0  9998
2 19650  71.0012 338.1206 0015396 214.4259 145.5868 14.15983497841661
Epoch (UTC): 15 July 2024 15:26:00
Eccentricity: 0.0015396
inclination: 71.0012°
perigee height: 828 km
apogee height: 850 km
right ascension of ascending node: 338.1206°
argument of perigee: 214.4259°
revolutions per day: 14.15983497
mean anomaly at epoch: 145.5868°
orbit number at epoch: 84166

The dashed part of the orbit path shows where the satellite is in the earth's shadow,  

DLR